Stations météo

réclame
Mon MeteoGroup
Istres, France (7647): Température de l'air & dewpoint: 16.09.2018 15:00:00 - 22.09.2018 15:00:00 (CEST)Istres, France (7647): Température de l'air 5cm: 16.09.2018 15:00:00 - 22.09.2018 15:00:00 (CEST)Istres, France (7647): Vitesse du vent & gusts: 16.09.2018 15:00:00 - 22.09.2018 15:00:00 (CEST)Istres, France (7647): Direction du vent: 16.09.2018 15:00:00 - 22.09.2018 15:00:00 (CEST)Istres, France (7647): reduced air pressure: 16.09.2018 15:00:00 - 22.09.2018 15:00:00 (CEST)Istres, France (7647): visibility: 16.09.2018 15:00:00 - 22.09.2018 15:00:00 (CEST)Istres, France (7647): Quantités de précipitations: 16.09.2018 15:00:00 - 22.09.2018 15:00:00 (CEST)
Date & Time tt [°C] td [°C] tt 5cm [°C] ff [km/h] ff [knt] fx [km/h] fx [knt] dd ppp [hPa] vv [km] rr [mm]
22.09.2018 15:00:00 26,4 4,2 29,9 39 21 50 27 NNW 1019,3 10 0,0
22.09.2018 14:00:00 25,1 5,8 28,3 34 18 54 29 NNW 1019,8 12 0,0
22.09.2018 13:00:00 23,3 6,5 22,9 38 21 61 33 NW 1020,0 11 0,0
22.09.2018 12:00:00 20,9 7,8 23,4 44 24 59 32 NW 1020,1 12 0,0
22.09.2018 11:00:00 20,0 9,0 22,6 38 21 51 28 NW 1020,2 13 0,0
22.09.2018 10:00:00 19,0 9,2 19,9 30 16 49 27 NNW 1020,2 14 0,0
22.09.2018 09:00:00 17,5 8,6 16,4 29 16 42 23 NNW 1020,2 14 0,0
22.09.2018 08:00:00 16,6 7,8 15,4 25 13 36 20 NNW 1019,9 42 0,0
22.09.2018 07:00:00 17,1 7,2 16,2 20 11 39 21 NNW 1019,3 60 0,0
22.09.2018 06:00:00 18,0 8,3 17,3 29 16 43 23 NNW 1019,3 56 0,0
22.09.2018 05:00:00 18,4 9,5 17,7 14 8 35 19 NNW 1019,1 60 0,0
22.09.2018 04:00:00 18,8 10,1 18,2 25 13 33 18 NNW 1019,0 60 0,0
22.09.2018 03:00:00 19,4 13,8 18,9 19 10 35 19 NW 1018,9 60 0,0
22.09.2018 02:00:00 20,6 14,5 20,1 25 13 36 19 NW 1018,8 60 0,0
22.09.2018 01:00:00 22,0 14,6 21,4 16 9 32 17 NW 1018,9 60 0,0
22.09.2018 00:00:00 23,5 14,2 22,1 19 11 27 14 W 1018,7 60 0,0
21.09.2018 23:00:00 24,0 13,5 23,2 21 11 40 22 W 1018,0 60 0,0
21.09.2018 22:00:00 25,2 13,1 23,7 29 16 44 24 WNW 1017,6 60 0,0
21.09.2018 21:00:00 25,8 16,4 21,7 19 10 31 17 NW 1016,9 31 0,0
21.09.2018 20:00:00 25,2 21,1 23,0 4 2 7 4 WNW 1016,0 30 0,0
21.09.2018 19:00:00 26,0 20,8 25,9 7 4 24 13 SW 1015,7 28 0,0
21.09.2018 18:00:00 27,6 18,3 28,1 15 8 24 13 SW 1015,3 35 0,0
21.09.2018 17:00:00 29,8 16,2 33,1 17 9 25 14 WSW 1015,5 20 0,0
21.09.2018 16:00:00 29,9 18,7 32,5 10 5 21 11 WSW 1015,6 20 0,0
21.09.2018 15:00:00 29,4 17,2 34,1 12 7 29 16 WSW 1016,1 19 0,0
21.09.2018 14:00:00 28,7 18,2 34,2 11 6 24 13 W 1016,5 19 0,0
21.09.2018 13:00:00 28,7 17,9 32,8 11 6 19 10 WSW 1017,0 19 0,0
21.09.2018 12:00:00 27,0 18,0 29,2 13 7 21 11 WSW 1017,1 19 0,0
21.09.2018 11:00:00 26,1 18,0 30,7 8 4 14 8 W 1017,2 19 0,0
21.09.2018 10:00:00 25,0 18,7 26,6 5 3 13 7 E 1016,8 20 0,0
21.09.2018 09:00:00 22,0 19,7 20,4 5 3 14 8 NNE 1016,4 15 0,0
21.09.2018 08:00:00 20,2 19,7 17,1 12 7 16 9 ENE 1016,0 19 0,0
21.09.2018 07:00:00 19,0 19,0 16,4 11 6 15 8 E 1015,7 17 0,0
21.09.2018 06:00:00 17,9 17,9 16,8 13 7 20 11 NNE 1015,9 20 0,0
21.09.2018 05:00:00 17,5 17,5 16,8 13 7 16 8 NNE 1016,1 20 0,0
21.09.2018 04:00:00 17,8 17,8 17,1 8 4 11 6 NNE 1016,3 17 0,0
21.09.2018 03:00:00 19,4 19,4 18,0 7 4 10 5 ENE 1016,5 13 0,0
21.09.2018 02:00:00 19,9 19,9 17,6 8 4 12 6 E 1016,9 11 0,0
21.09.2018 01:00:00 19,2 19,2 18,3 10 6 14 8 NE 1017,2 14 0,0
21.09.2018 00:00:00 20,1 20,1 18,7 10 5 12 6 NNE 1017,3 9 0,0
20.09.2018 23:00:00 20,5 20,5 18,3 6 3 8 5 NE 1017,3 13 0,0
20.09.2018 22:00:00 22,1 22,1 19,1 0 0 11 6 N 1017,0 17 0,0
20.09.2018 21:00:00 22,9 22,9 21,3 5 3 20 11 ESE 1016,7 23 0,0
20.09.2018 20:00:00 23,7 23,7 22,7 16 8 27 15 SSE 1016,2 25 0,0
20.09.2018 19:00:00 25,3 21,6 26,3 20 11 29 16 S 1016,3 29 0,0
20.09.2018 18:00:00 26,9 17,7 30,2 21 12 30 16 SSE 1016,2 20 0,0
20.09.2018 17:00:00 28,6 17,2 33,2 22 12 30 16 S 1016,4 32 0,0
20.09.2018 16:00:00 29,1 17,3 34,9 22 12 29 16 S 1016,7 20 0,0
20.09.2018 15:00:00 29,6 17,4 36,0 21 12 30 16 S 1017,0 20 0,0
20.09.2018 14:00:00 31,0 17,7 35,9 7 4 14 8 S 1017,3 20 0,0
20.09.2018 13:00:00 29,8 17,9 34,1 7 4 16 9 SSE 1017,9 19 0,0
20.09.2018 12:00:00 28,1 17,6 31,8 8 4 16 9 NE 1018,4 12 0,0
20.09.2018 11:00:00 26,4 19,5 29,1 11 6 18 10 NE 1018,8 12 0,0
20.09.2018 10:00:00 23,5 20,0 24,4 9 5 20 11 N 1018,7 9 0,0
20.09.2018 09:00:00 20,4 20,4 18,9 13 7 18 10 N 1018,6 20 0,0
20.09.2018 08:00:00 18,0 18,0 16,8 14 8 18 10 NNE 1018,7 17 0,0
20.09.2018 07:00:00 17,5 17,5 16,9 12 6 16 8 NNE 1018,5 18 0,0
20.09.2018 06:00:00 17,5 17,5 17,0 12 6 16 9 NNE 1018,5 20 0,0
20.09.2018 05:00:00 18,3 18,3 17,1 2 1 10 5 E 1018,5 17 0,0
20.09.2018 04:00:00 19,5 19,5 17,3 3 2 7 4 ENE 1018,8 13 0,0
20.09.2018 03:00:00 20,5 20,5 17,5 3 2 8 4 ESE 1019,2 13 0,0
20.09.2018 02:00:00 21,0 21,0 18,3 4 2 7 4 ESE 1019,6 17 0,0
20.09.2018 01:00:00 20,9 20,9 18,7 4 2 7 4 SE 1019,8 18 0,0
20.09.2018 00:00:00 21,9 21,6 19,0 6 4 8 5 SE 1019,9 17 0,0
19.09.2018 23:00:00 22,0 21,0 18,8 0 0 7 4 N 1019,7 36 0,0
19.09.2018 22:00:00 22,6 20,7 19,9 0 0 10 6 N 1019,4 39 0,0
19.09.2018 21:00:00 23,5 21,2 21,7 5 3 13 7 W 1018,9 42 0,0
19.09.2018 20:00:00 24,7 19,5 23,6 7 4 22 12 WSW 1018,5 48 0,0
19.09.2018 19:00:00 27,2 17,7 27,5 16 8 33 18 WSW 1018,5 40 0,0
19.09.2018 18:00:00 29,0 17,5 30,9 21 11 27 15 WSW 1018,0 36 0,0
19.09.2018 17:00:00 30,0 18,4 33,7 18 10 28 15 WSW 1018,0 20 0,0
19.09.2018 16:00:00 30,7 17,0 35,5 12 7 21 12 WSW 1018,5 47 0,0
19.09.2018 15:00:00 30,1 17,2 35,5 10 5 20 11 SW 1019,0 20 0,0
19.09.2018 14:00:00 29,3 18,7 35,4 10 5 22 12 W 1019,5 19 0,0
19.09.2018 13:00:00 27,9 19,9 34,1 10 5 18 10 NW 1019,8 20 0,0
19.09.2018 12:00:00 27,1 21,6 32,8 9 5 18 10 NNW 1020,4 19 0,0
19.09.2018 11:00:00 25,5 21,4 29,0 7 4 14 7 NNW 1020,7 18 0,0
19.09.2018 10:00:00 23,6 22,4 24,6 5 3 11 6 NE 1020,4 18 0,0
19.09.2018 09:00:00 20,5 20,5 18,7 7 4 13 7 NNE 1019,9 14 0,0
19.09.2018 08:00:00 18,7 18,7 16,8 10 6 16 9 NNE 1019,4 10 0,0
19.09.2018 07:00:00 18,6 18,6 17,1 3 1 7 4 NNE 1019,2 7 0,2
19.09.2018 06:00:00 19,2 19,2 18,1 6 4 13 7 NNW 1018,8 7 0,0
19.09.2018 05:00:00 19,2 19,2 18,5 9 5 14 8 NNE 1018,5 7 0,0
19.09.2018 04:00:00 19,5 19,5 18,4 9 5 13 7 NNE 1018,6 7 0,0
19.09.2018 03:00:00 19,8 19,8 19,1 9 5 12 7 NNE 1018,8 6 0,0
19.09.2018 02:00:00 20,1 20,1 19,6 8 4 11 6 NNE 1019,5 5 0,0
19.09.2018 01:00:00 20,7 20,7 20,1 8 4 16 9 NNE 1019,7 7 0,0
19.09.2018 00:00:00 21,2 21,2 20,2 8 4 9 5 N 1019,7 7 0,0
18.09.2018 23:00:00 21,6 21,6 20,7 5 3 8 5 N 1019,2 8 0,0
18.09.2018 22:00:00 22,5 22,5 20,3 0 0 7 4 N 1019,0 15 0,0
18.09.2018 21:00:00 22,9 22,9 21,5 5 3 10 6 SSW 1018,2 17 0,0
18.09.2018 20:00:00 23,7 23,7 22,9 9 5 18 10 S 1017,5 20 0,0
18.09.2018 19:00:00 24,7 23,3 25,2 16 9 27 14 S 1017,4 30 0,0
18.09.2018 18:00:00 25,6 23,1 27,4 22 12 35 19 S 1017,4 20 0,0
18.09.2018 17:00:00 26,4 21,8 28,5 20 11 32 17 S 1017,6 33 0,0
18.09.2018 16:00:00 26,3 21,9 29,8 21 11 34 18 S 1017,8 37 0,0
18.09.2018 15:00:00 27,3 20,1 32,3 20 11 31 17 S 1018,1 38 0,0
18.09.2018 14:00:00 27,6 19,1 32,7 19 10 27 15 S 1018,5 20 0,0
18.09.2018 13:00:00 27,1 17,8 30,1 7 4 21 12 SE 1018,5 20 0,0
18.09.2018 12:00:00 27,0 17,8 30,3 10 5 21 11 SE 1018,9 40 0,0
18.09.2018 11:00:00 25,5 19,6 27,9 10 5 19 10 E 1019,1 20 0,0
18.09.2018 10:00:00 23,8 19,9 24,8 12 6 18 10 ENE 1019,1 43 0,0
18.09.2018 09:00:00 21,4 20,9 19,1 7 4 14 7 NE 1019,0 4,3 0,0
18.09.2018 08:00:00 18,2 18,2 17,0 10 5 14 8 NNE 1018,7 19 0,2
18.09.2018 07:00:00 17,5 17,5 16,9 10 5 13 7 NNE 1018,4 18 0,0
18.09.2018 06:00:00 18,2 18,2 17,3 5 3 11 6 NE 1018,6 15 0,0
18.09.2018 05:00:00 18,8 18,8 17,7 8 5 12 7 ENE 1018,3 13 0,0
18.09.2018 04:00:00 18,8 18,8 17,3 6 3 8 5 NE 1018,3 8 0,0
18.09.2018 03:00:00 19,2 19,2 17,8 4 2 9 5 NNE 1018,6 10 0,0
18.09.2018 02:00:00 19,7 19,7 18,8 5 3 11 6 NE 1018,6 10 0,0
18.09.2018 01:00:00 21,2 21,2 19,7 5 3 11 6 ENE 1019,1 11 0,0
18.09.2018 00:00:00 22,1 22,1 20,9 8 4 13 7 ESE 1019,2 26 0,0
17.09.2018 23:00:00 22,5 22,5 21,4 8 5 11 6 ESE 1019,2 23 0,0
17.09.2018 22:00:00 22,6 22,6 21,2 6 3 10 5 SE 1019,3 20 0,0
17.09.2018 21:00:00 22,5 22,5 21,3 9 5 14 8 SE 1018,9 29 0,0
17.09.2018 20:00:00 23,4 22,4 22,5 10 5 21 11 S 1018,2 32 0,0
17.09.2018 19:00:00 24,5 21,6 25,1 16 9 25 14 S 1018,2 46 0,0
17.09.2018 18:00:00 25,6 20,2 28,9 19 11 29 16 S 1018,4 34 0,0
17.09.2018 17:00:00 26,3 20,8 31,8 18 10 33 18 S 1018,8 34 0,0
17.09.2018 16:00:00 27,1 19,4 32,9 18 10 29 16 SSE 1019,2 36 0,0
17.09.2018 15:00:00 26,9 19,8 33,0 17 9 33 18 S 1019,9 37 0,0
17.09.2018 14:00:00 27,7 19,2 32,1 15 8 - - S 1020,3 39 0,0
17.09.2018 13:00:00 27,4 18,4 34,0 9 5 20 11 SE 1020,6 20 0,0
17.09.2018 12:00:00 26,6 19,0 29,2 6 4 14 8 SW 1021,1 35 0,0
17.09.2018 11:00:00 25,0 20,3 27,0 6 3 11 6 E 1021,1 20 0,0
17.09.2018 10:00:00 22,5 21,5 22,3 3 2 13 7 NE 1021,0 19 0,0
17.09.2018 09:00:00 19,7 19,7 19,6 9 5 11 6 NNE 1021,0 18 0,0
17.09.2018 08:00:00 18,1 18,1 16,4 6 3 8 5 ENE 1020,8 11 0,0
17.09.2018 07:00:00 17,5 17,5 16,8 7 4 15 8 NE 1020,4 14 0,0
17.09.2018 06:00:00 17,3 17,3 16,8 11 6 17 9 NNE 1020,3 19 0,0
17.09.2018 05:00:00 17,8 17,8 17,2 10 6 14 8 NNE 1020,5 21 0,0
17.09.2018 04:00:00 18,1 18,1 17,5 9 5 11 6 ENE 1020,7 20 0,0
17.09.2018 03:00:00 19,0 19,0 17,9 0 0 8 4 N 1021,2 21 0,0
17.09.2018 02:00:00 19,3 19,3 18,0 5 3 10 5 NE 1021,3 23 0,0
17.09.2018 01:00:00 19,3 19,3 18,6 9 5 10 6 NNE 1021,4 26 0,0
17.09.2018 00:00:00 19,8 19,8 18,0 6 3 8 4 N 1021,6 29 0,0
16.09.2018 23:00:00 21,3 21,1 18,0 2 1 3 2 W 1021,9 53 0,0
16.09.2018 22:00:00 21,7 20,7 19,0 3 1 5 3 S 1021,8 43 0,0
16.09.2018 21:00:00 22,7 20,6 20,8 0 0 6 3 N 1021,3 60 0,0
16.09.2018 20:00:00 23,8 20,3 23,1 5 3 12 6 SSW 1021,0 60 0,0
16.09.2018 19:00:00 24,6 20,5 25,4 9 5 17 9 S 1020,8 60 0,0
16.09.2018 18:00:00 25,0 18,9 26,6 12 7 24 13 S 1020,6 42 0,0
16.09.2018 17:00:00 25,7 20,5 28,0 18 10 29 15 SSE 1020,5 39 0,0
16.09.2018 16:00:00 25,5 21,0 28,1 20 11 28 15 S 1020,6 33 0,0
16.09.2018 15:00:00 25,7 20,3 29,5 20 11 29 16 S 1020,8 41 0,0

tt = Température de l'air
td = dewpoint
tt 5cm = Température de l'air 5cm
ff = Vitesse du vent
fx = gusts
dd = Direction du vent
ppp = reduced air pressure
vv = visibility
rr = Quantités de précipitations

stations d'obs. à proximité